Location: Bonny Doon Airfield
(37.0704°N, 122.1252°W)
Time: 18:03:56
(UTC-07:00)

BREEZE M DEB (TANK) - Visible Passes

Search period start: 21 April 2018 00:00
Search period end: 01 May 2018 00:00
Orbit: 337 x 13669 km, 49.6° (Epoch: 21 April)

Date Brightness Start Highest point End Pass type
(mag) Time Alt. Az. Time Alt. Az. Time Alt. Az.
21 Apr 8.6 21:15:09 10° NW 22:43:53 40° W 23:41:26 10° SSW visible
22 Apr 8.5 18:12:30 10° WNW 19:55:02 81° WSW 21:05:29 10° SSE visible
22 Apr 9.3 23:33:35 10° NW 00:15:31 15° WNW 00:53:46 10° W visible
23 Apr 8.5 20:09:13 10° NW 21:45:51 52° W 22:47:03 10° S visible
24 Apr 8.9 22:14:58 10° NW 23:21:54 25° W 00:15:55 10° WSW visible
25 Apr 8.6 19:05:04 10° NW 20:45:10 64° WSW 21:51:01 10° S visible
26 Apr 8.8 21:05:05 10° NW 22:26:35 35° W 23:26:55 10° SW visible
27 Apr 8.6 18:02:12 10° WNW 19:41:16 75° WSW 20:53:44 10° SSE visible
27 Apr 9.7 23:35:29 10° WNW 23:57:15 11° WNW 00:18:50 10° W visible
28 Apr 8.7 19:58:49 10° NW 21:29:14 47° W 22:33:45 10° SSW visible
29 Apr 9.2 22:06:51 10° NW 23:04:00 21° WNW 23:56:05 10° WSW visible
30 Apr 8.7 18:54:36 10° NW 20:29:28 58° WSW 21:38:26 10° S visible
